Theta_e
302 302 302 303 303 303 303 303 303 304 305 306 305 304 305 306 308 310 309 308 309 309 309 309 308 308 308 308 308 308 308 308 308 308 308 308 308 308 308 308 307 307 308 307 307 308 310 310 310 311 311 312 312 312 311 311 310 311 312 312 314 318 320 321 323 325 326 327 329 327 327 327 326 325 326 324 324 323 321 327 328 319 317 321 321 318 327
305 305 305 306 306 305 305 305 305 305 306 306 305 305 306 306 307 308 308 308 309 308 308 309 308 309 309 308 307 308 308 308 308 308 308 308 308 308 308 308 308 307 308 308 307 308 311 311 310 310 311 312 311 312 311 311 310 310 311 313 314 317 317 317 322 330 329 325 327 328 326 326 324 326 327 324 326 325 324 330 329 321 319 320 320 320 328
307 308 308 307 307 307 306 306 306 306 306 305 305 305 306 306 307 307 307 308 308 308 308 308 308 308 309 308 307 308 308 308 309 309 308 308 308 308 308 308 308 308 308 308 307 308 310 310 311 310 310 311 311 311 311 310 311 311 313 314 315 315 315 315 322 331 331 327 330 330 326 326 326 327 326 325 326 323 323 326 322 320 325 323 319 322 331
309 310 310 309 309 308 308 307 306 306 305 305 305 305 306 306 307 306 306 307 308 307 307 308 308 308 309 308 308 308 308 308 309 309 308 308 308 308 308 308 308 308 309 308 307 307 308 310 311 310 310 310 310 310 311 310 311 313 315 315 314 314 315 315 318 324 326 326 328 328 326 326 326 326 325 325 326 323 326 327 322 326 332 324 322 327 328
310 310 310 310 310 309 309 308 307 306 305 304 305 306 305 306 306 306 306 307 307 307 307 307 307 309 309 308 308 308 308 308 308 308 308 308 308 309 308 308 308 309 308 308 307 307 308 309 310 310 310 310 310 310 311 311 312 314 313 313 314 315 315 315 316 319 319 319 320 320 323 326 326 326 325 325 327 324 323 323 325 334 332 321 329 337 328
310 310 310 310 310 310 310 309 309 308 306 305 305 306 306 306 306 305 305 307 307 306 306 307 307 308 309 309 308 308 308 308 308 309 308 308 308 309 310 309 309 308 308 308 309 308 308 309 310 310 310 310 310 311 311 311 312 312 311 311 313 314 314 314 314 315 314 314 317 320 323 326 329 328 326 324 326 325 322 323 329 338 331 323 335 344 333
310 310 310 311 311 310 310 310 309 309 307 305 306 306 306 306 306 305 306 306 306 306 306 307 308 308 309 310 309 308 308 308 308 308 308 308 308 309 309 309 308 308 309 309 309 309 309 309 310 310 310 310 311 311 312 312 312 310 310 311 312 313 315 315 314 314 313 315 319 322 325 328 329 329 328 326 327 326 324 325 330 337 336 337 346 348 341
310 311 311 311 311 310 310 309 308 308 307 306 306 307 306 306 306 306 306 306 306 306 307 307 307 308 309 310 310 308 308 308 308 308 308 308 309 308 308 308 308 308 309 309 309 309 309 309 309 309 310 311 312 313 312 312 311 310 309 310 311 313 315 315 313 313 314 317 322 323 324 327 328 330 331 328 326 327 325 325 329 333 334 341 349 348 344
311 311 312 312 312 311 310 309 307 306 307 306 306 306 307 306 306 306 306 306 306 306 307 306 307 308 309 309 309 308 308 309 308 308 308 308 309 308 308 308 308 309 309 309 310 308 308 309 308 308 309 309 311 314 313 311 310 309 309 309 310 312 314 314 313 313 315 318 320 321 323 327 330 332 334 330 326 327 325 324 329 331 330 339 346 342 341
312 312 312 312 312 311 309 308 306 306 306 307 307 307 307 307 306 306 306 306 306 306 306 306 307 309 309 309 309 308 308 308 308 308 308 308 308 308 308 308 310 310 309 309 309 308 308 308 308 308 308 308 309 310 310 310 310 309 310 310 309 311 313 313 313 313 316 316 318 322 326 330 330 329 331 332 330 333 331 328 336 339 335 339 343 341 344
312 312 312 312 311 311 309 308 307 306 306 307 307 307 307 307 307 306 306 306 306 306 306 306 307 308 308 308 308 308 308 308 308 307 308 308 308 308 308 308 309 310 310 309 308 307 307 308 308 308 308 309 308 308 309 309 309 309 310 310 310 311 313 313 313 314 315 315 319 327 330 330 330 328 329 331 335 342 342 339 341 341 340 340 342 344 345
313 312 312 312 311 310 309 308 307 307 307 307 307 307 307 307 306 306 306 307 306 306 305 306 306 306 307 307 308 308 308 308 308 308 308 308 308 308 308 308 309 309 309 308 308 308 307 308 308 308 308 309 309 309 309 308 309 310 310 310 310 311 311 312 313 314 314 318 327 335 334 332 331 328 328 330 332 338 341 341 341 339 340 342 344 341 338
312 312 312 311 311 310 309 308 307 307 307 307 308 307 308 307 307 306 306 306 306 306 305 306 306 306 307 308 308 308 308 308 308 308 308 308 308 308 308 308 308 309 309 309 308 308 309 310 309 308 309 309 309 310 310 309 309 309 309 310 310 310 311 313 313 314 317 323 331 336 335 334 332 328 327 328 329 332 339 344 342 338 339 341 343 341 336
312 311 311 310 309 309 309 308 307 307 307 307 308 308 308 308 307 306 306 306 307 306 306 306 306 307 308 308 308 308 308 308 308 307 307 308 308 308 308 308 309 308 309 309 308 309 310 311 310 309 309 310 312 312 311 311 310 310 310 310 310 310 312 312 312 318 320 320 324 332 338 340 338 331 327 327 327 329 337 345 344 338 338 339 341 345 343
310 309 308 309 309 310 309 309 308 308 308 308 308 308 308 308 308 307 306 306 306 306 306 306 307 307 308 308 308 308 308 308 308 308 308 308 308 309 308 309 309 308 309 309 309 310 311 310 310 310 310 311 313 313 313 313 313 311 310 311 310 310 312 312 313 318 319 316 321 333 342 345 339 330 324 325 328 327 331 342 344 338 336 338 340 345 346
308 307 309 310 311 310 309 309 309 309 308 308 308 309 309 309 308 307 307 307 307 307 307 307 307 308 308 308 308 308 309 309 309 308 308 308 308 309 309 308 309 308 308 309 309 310 311 310 310 311 311 311 312 313 314 315 316 314 311 311 311 311 313 313 313 314 314 314 321 332 338 338 332 327 324 324 329 329 330 342 346 340 335 338 338 341 343
307 309 311 311 311 310 309 309 308 309 308 309 309 309 309 309 309 308 308 308 307 308 308 307 307 308 308 308 309 309 309 309 309 309 309 309 308 308 309 308 309 309 309 310 311 311 311 310 310 311 311 311 312 313 314 315 317 317 314 312 312 312 313 313 313 313 314 316 323 332 335 330 326 324 324 324 328 331 337 346 346 338 334 336 338 339 341
310 311 312 312 311 310 309 308 308 309 309 309 309 309 309 309 309 309 308 308 308 308 308 308 308 308 308 308 309 309 309 309 309 309 309 309 308 309 309 308 308 309 310 311 311 311 311 311 310 310 311 311 312 313 314 315 316 317 316 315 314 313 313 313 313 313 314 316 320 327 331 328 325 325 324 326 331 337 343 346 342 336 334 335 336 338 340
311 312 312 312 311 311 310 309 309 309 309 308 309 309 309 310 310 309 309 309 309 308 309 309 309 309 309 309 309 309 309 309 309 309 309 309 309 308 308 308 308 309 309 311 311 311 311 311 311 310 311 312 312 313 314 314 315 316 316 317 316 313 313 314 314 314 315 314 317 325 331 327 324 324 325 329 336 341 342 339 335 331 331 333 334 336 338
312 312 313 312 312 311 310 309 309 309 308 308 308 309 309 309 310 310 309 309 309 309 309 309 309 309 309 309 309 309 309 309 309 309 310 310 309 309 309 310 309 309 309 310 310 310 310 311 311 311 312 312 313 313 314 314 315 315 316 317 317 316 316 317 317 317 318 318 321 328 331 326 322 324 330 334 337 337 335 332 330 328 328 330 332 334 336
312 313 313 313 313 312 311 310 310 309 308 308 308 308 309 309 309 310 310 310 309 309 309 310 310 309 309 309 309 309 309 309 309 309 309 309 309 309 310 310 309 309 309 309 309 309 309 310 310 311 313 313 312 313 314 314 315 315 314 316 318 318 319 319 319 319 322 325 327 327 327 324 322 324 329 331 331 330 328 328 328 326 326 327 328 330 333
313 313 313 313 313 313 313 312 311 310 309 309 308 308 309 309 309 310 310 310 310 310 310 310 310 309 309 310 309 309 309 309 309 309 309 309 309 309 309 309 308 308 308 309 310 310 310 310 311 311 312 313 313 313 313 315 316 315 313 315 317 317 317 318 320 321 323 326 325 322 321 321 321 322 325 327 326 325 325 326 326 325 324 325 325 327 331
313 314 314 314 314 314 313 313 312 312 311 310 309 309 309 309 310 310 311 310 310 310 311 310 310 309 310 310 310 310 310 310 309 309 309 309 309 309 309 309 309 308 308 308 310 311 311 311 312 312 311 312 313 312 313 315 316 315 313 314 314 314 314 315 319 322 322 321 321 318 317 319 321 322 324 324 323 323 323 324 324 324 324 323 323 325 329
313 314 314 315 315 314 314 313 312 312 312 311 311 310 310 310 310 311 311 311 310 310 310 310 309 310 310 311 310 310 310 310 310 309 309 309 309 309 309 309 309 309 309 309 309 310 310 310 311 311 311 311 312 313 312 313 313 313 312 312 312 313 313 313 317 320 320 320 321 317 316 318 318 319 321 321 321 322 322 322 322 323 322 323 322 322 326
314 314 314 315 315 314 314 313 312 312 312 312 312 311 311 311 311 311 311 310 310 310 310 309 310 310 310 310 310 310 311 310 310 310 309 309 309 309 309 309 309 309 309 309 309 309 310 311 312 312 311 311 311 311 311 311 311 311 311 312 312 312 313 313 315 316 317 319 319 316 315 317 317 317 319 318 319 321 321 321 321 321 321 321 321 321 323
314 315 315 315 315 314 314 313 313 312 312 312 312 312 311 311 311 311 311 311 310 310 310 309 310 310 310 310 311 311 311 310 310 310 310 309 309 309 308 308 308 308 308 308 309 309 309 310 311 311 311 310 310 310 310 311 311 310 310 310 311 312 312 313 313 314 315 316 316 315 316 317 316 316 317 317 317 319 319 319 320 319 319 320 321 322 323
315 316 316 316 315 314 314 314 313 313 313 313 313 312 312 311 311 311 311 310 310 311 310 310 310 310 310 310 311 312 312 311 310 310 309 309 309 309 309 308 308 309 308 308 309 309 309 310 310 310 310 309 309 309 310 310 309 309 310 310 310 312 312 311 311 312 314 315 314 315 316 317 316 315 315 315 316 317 317 317 318 317 318 320 322 324 323
315 316 316 315 315 314 314 314 314 314 314 314 314 313 313 312 311 311 310 310 310 310 310 310 310 310 310 310 311 312 312 311 311 310 310 309 309 309 309 309 308 308 308 309 309 309 309 310 310 310 309 309 309 309 309 309 309 309 310 310 309 310 311 310 310 311 311 312 312 313 314 314 314 314 314 314 314 316 316 317 316 317 319 321 322 321 321
316 317 317 315 315 315 315 314 314 314 314 315 315 314 314 313 312 311 310 309 309 309 310 309 310 310 311 310 311 312 312 312 312 311 310 310 310 309 309 309 309 308 308 309 309 309 310 310 309 310 310 309 309 309 309 309 310 310 310 310 309 310 310 310 310 310 310 310 311 312 312 313 313 313 313 313 313 314 316 316 317 318 320 320 320 319 318
316 318 317 316 316 316 316 315 315 315 315 315 315 314 314 314 313 311 310 309 309 309 309 309 310 311 311 311 311 312 312 312 312 312 312 311 311 310 310 310 309 309 309 309 309 309 309 309 309 309 309 309 309 310 310 309 309 309 309 309 310 309 309 309 309 309 309 310 310 311 311 311 312 312 312 312 312 314 315 317 317 318 318 317 318 317 317
316 318 318 317 317 317 317 317 317 316 316 315 315 314 313 313 313 312 311 310 309 309 308 309 310 310 310 312 313 313 312 312 312 312 313 312 312 311 311 310 310 310 310 309 309 309 308 308 309 309 309 309 309 309 308 309 309 310 310 310 309 308 308 308 308 309 309 309 309 309 310 310 311 311 312 312 312 313 315 316 316 316 316 316 317 316 316
317 318 319 318 318 317 317 318 318 318 318 317 316 315 314 313 312 312 312 311 310 309 308 309 310 311 311 313 314 314 313 313 313 313 313 312 311 311 311 310 310 310 310 310 309 308 308 309 309 308 308 309 308 307 306 308 309 310 309 308 307 307 308 309 310 312 312 311 309 309 309 310 310 311 311 312 312 314 315 316 316 316 316 316 316 317 317
319 319 319 320 319 318 318 318 318 319 318 318 318 317 316 315 314 313 313 313 311 310 309 309 311 313 314 314 315 315 315 314 314 314 313 313 312 312 311 310 310 309 310 310 309 308 308 308 308 307 308 307 306 305 307 308 309 309 308 307 307 308 310 311 312 314 315 315 312 310 310 311 311 311 311 312 313 314 315 315 315 315 316 316 316 316 316
319 320 320 320 320 320 320 319 319 319 319 319 319 318 317 316 315 314 314 313 313 313 311 310 312 315 316 316 317 317 316 315 315 315 315 314 313 312 312 311 311 310 310 310 309 308 308 308 308 308 307 305 305 306 308 309 309 309 309 309 309 310 311 311 312 314 316 317 315 313 312 311 311 311 311 311 312 313 314 314 314 314 315 315 316 316 316
319 320 321 320 320 321 321 320 320 320 319 319 319 318 317 316 316 315 315 314 313 313 312 311 313 315 316 318 319 318 317 316 316 316 315 315 314 313 312 311 312 312 311 310 309 309 309 309 309 309 307 305 306 308 309 309 310 310 310 310 310 310 310 311 312 314 317 318 318 315 313 311 310 311 312 311 311 312 312 312 313 314 314 314 315 316 316
319 321 321 320 321 321 321 321 321 320 319 320 320 319 318 317 316 316 316 314 313 314 313 312 314 316 317 319 319 317 317 318 318 316 316 316 315 314 313 313 313 312 311 311 311 311 310 309 309 308 307 307 308 309 309 310 310 310 310 310 310 309 310 310 311 313 316 318 318 316 313 311 311 312 312 312 312 312 312 313 313 313 314 315 315 315 316
319 320 321 321 321 322 322 322 321 320 320 321 320 319 318 317 316 317 316 315 314 314 313 314 316 316 316 317 317 317 318 320 319 318 317 317 316 315 314 315 315 314 313 314 313 312 310 309 308 308 308 308 309 310 310 310 310 309 309 310 309 309 309 309 310 312 314 316 316 316 314 312 312 312 311 312 312 313 313 314 314 314 314 315 315 316 317
319 320 320 321 322 322 322 322 321 320 321 321 320 319 319 318 317 317 317 316 316 316 314 315 317 317 315 317 319 319 318 319 319 320 319 318 317 317 316 316 316 315 316 316 314 312 311 310 308 308 309 310 310 311 310 310 309 309 309 309 309 309 309 309 309 310 311 313 315 316 315 314 313 313 312 312 313 314 314 314 314 314 315 315 315 316 316
318 318 318 319 322 322 321 320 319 320 321 320 320 320 320 319 319 320 319 317 317 317 316 316 318 317 317 319 320 319 317 318 320 321 320 319 319 319 319 318 316 316 316 316 313 313 314 313 310 309 311 312 312 311 310 309 309 308 309 309 309 309 308 308 308 309 310 311 313 316 316 315 315 314 314 314 314 315 315 314 315 315 315 315 316 316 316
318 318 317 319 321 321 319 319 319 319 320 321 321 321 320 320 321 322 320 319 321 320 318 318 319 318 318 320 321 319 318 319 320 321 321 320 319 318 318 318 316 315 316 315 313 313 314 313 311 311 312 312 312 311 310 309 308 308 308 308 308 308 308 307 308 308 309 310 311 314 316 317 317 317 317 316 316 316 315 315 315 315 316 316 316 316 316
318 318 319 320 320 320 320 320 320 321 321 322 322 322 322 320 320 320 320 323 324 322 318 319 320 318 317 319 320 320 319 319 319 319 320 320 317 316 318 317 315 315 317 315 313 314 314 313 312 311 312 312 312 311 310 309 308 307 307 307 307 307 307 307 307 307 308 308 309 310 312 315 316 318 318 317 317 317 316 316 316 316 316 316 316 316 317
318 318 319 319 320 321 321 321 321 322 322 322 322 323 322 320 319 320 320 322 322 320 319 319 319 318 318 318 319 319 319 319 318 319 321 321 319 318 319 319 316 317 317 314 313 314 314 313 312 312 312 312 312 311 310 309 309 308 307 307 306 306 307 307 307 307 307 307 307 308 309 311 312 314 315 317 317 317 317 317 317 318 317 317 317 319 321
318 319 320 321 321 322 323 322 321 321 322 322 320 319 320 321 320 320 320 319 317 317 319 320 319 320 320 319 318 318 319 319 318 319 321 321 318 317 318 317 316 315 315 313 314 314 313 312 312 312 312 312 313 311 309 309 309 308 308 307 306 306 306 306 306 307 307 307 307 307 307 308 308 310 312 314 315 316 316 316 317 318 318 318 320 321 321
319 319 320 320 321 321 321 320 317 316 319 320 318 315 317 320 320 319 319 318 316 316 316 316 317 320 320 319 318 320 321 320 319 317 318 318 316 315 316 316 314 314 314 314 314 314 313 312 312 312 312 312 313 312 310 310 309 309 308 307 307 306 306 305 306 306 307 307 307 306 306 306 306 307 309 310 311 312 312 313 314 316 317 319 319 319 317
319 320 319 319 318 317 316 316 315 314 316 317 317 316 316 317 318 318 317 315 314 314 315 314 315 317 318 318 318 318 319 320 319 317 315 316 316 315 315 315 314 314 315 315 314 313 312 311 311 312 312 312 312 312 312 311 310 309 308 307 307 307 306 306 305 305 305 306 307 307 306 306 305 306 306 307 308 309 310 310 311 312 313 313 313 313 313
319 319 318 317 316 315 315 316 317 317 315 315 315 315 315 316 316 315 314 313 312 314 315 314 315 316 316 316 317 316 315 318 319 316 314 316 317 314 313 314 314 314 314 314 313 313 312 311 311 312 312 312 312 312 312 312 311 310 309 307 307 307 307 306 306 305 305 305 305 306 306 306 306 305 305 305 306 307 307 308 309 310 310 310 310 309 309
318 317 316 316 318 318 316 316 316 316 315 314 313 313 314 314 314 313 313 312 313 314 314 313 314 315 315 314 316 315 313 315 318 315 314 315 316 314 313 314 314 314 314 313 312 312 312 312 311 311 311 311 312 312 311 311 312 311 311 309 307 306 306 307 307 306 305 305 305 305 305 305 305 305 305 305 305 305 305 306 307 308 308 309 309 309 308
317 316 316 319 320 318 315 315 315 314 314 314 313 313 313 314 313 312 312 312 312 314 314 312 313 314 314 314 314 314 313 315 316 315 314 315 315 314 313 313 313 313 313 313 313 312 312 312 312 311 311 311 311 311 311 311 311 311 312 311 309 307 307 306 307 307 307 307 306 305 304 304 304 304 304 304 304 305 305 305 305 305 306 306 307 308 308
316 315 316 318 318 315 312 313 315 316 314 313 313 313 313 313 313 312 312 312 312 313 313 312 313 314 314 313 314 315 315 314 315 315 314 314 314 313 313 314 314 313 313 313 313 312 311 311 311 311 310 310 310 310 310 311 311 311 311 312 311 310 308 307 307 307 307 308 307 307 306 305 304 304 304 304 304 304 304 305 304 304 304 305 305 305 306
315 315 315 315 316 315 314 314 316 316 315 314 313 312 313 314 313 312 312 312 312 313 313 312 312 313 313 313 315 316 315 314 315 316 315 313 313 312 311 312 312 312 312 312 311 311 310 310 310 310 309 309 309 309 309 310 310 310 310 311 311 311 310 309 308 307 307 307 307 307 307 307 307 306 305 305 304 304 304 304 304 304 303 303 304 304 304
315 315 315 315 315 316 315 314 315 316 315 314 313 312 313 313 313 312 312 311 311 312 313 312 312 314 316 316 315 314 313 313 315 315 313 311 311 311 310 308 309 311 312 312 311 310 310 310 309 309 309 309 308 308 308 309 309 310 309 309 310 310 310 310 310 309 308 308 307 307 307 307 307 307 306 306 306 305 304 304 303 303 303 303 303 304 304
314 314 315 315 315 315 315 314 314 315 315 314 314 313 313 313 313 312 312 311 311 312 311 311 313 316 316 314 312 312 313 312 312 312 311 309 308 309 308 307 307 309 311 311 310 309 309 308 308 308 308 308 307 307 307 307 308 309 309 308 308 309 310 310 310 310 310 310 309 309 307 307 306 306 306 306 306 305 305 304 304 303 303 303 303 304 304
Wind_Speed
29 29 30 30 30 30 31 32 32 31 32 33 35 29 24 20 14 15 24 24 21 14 5 6 7 4 9 12 12 13 11 9 11 11 10 6 4 5 5 5 6 4 4 6 7 7 3 2 3 7 7 7 10 15 21 22 17 11 6 6 11 10 3 2 6 7 9 13 11 9 10 12 10 7 6 8 10 9 8 6 5 6 7 5 2 4 7
29 29 29 29 30 30 30 31 30 29 28 29 30 26 21 19 17 18 23 22 22 15 4 5 5 5 11 12 11 14 12 10 12 11 8 5 4 3 3 5 5 4 3 5 7 5 2 1 3 6 6 7 11 15 19 20 14 7 6 7 9 8 3 3 6 5 5 6 5 5 6 8 8 8 10 11 14 12 6 4 5 5 8 8 5 4 7
29 29 29 29 29 29 29 29 28 27 26 26 25 22 19 15 10 17 25 21 21 15 7 5 4 6 10 10 9 11 10 11 14 13 8 6 5 2 2 4 6 5 3 5 7 4 4 2 2 2 5 8 9 13 18 20 14 10 11 11 8 5 3 2 3 3 3 5 4 2 3 3 5 10 15 13 13 14 7 4 5 5 6 7 6 6 8
30 30 29 28 28 28 28 28 27 26 25 24 22 17 15 10 4 11 22 20 16 15 14 12 7 5 8 7 7 9 8 9 15 14 9 11 10 4 2 5 6 5 4 5 8 6 2 2 2 2 5 6 6 13 19 19 16 12 11 13 8 3 3 5 6 7 6 7 10 10 8 7 9 11 16 15 13 14 10 5 5 6 5 6 8 9 9
30 30 29 29 28 27 27 27 26 25 23 21 18 14 10 6 2 5 11 12 11 14 17 16 9 7 8 5 4 9 8 7 11 11 9 14 14 4 2 5 5 4 6 4 4 8 8 6 4 3 6 6 7 14 18 15 12 12 12 14 8 2 4 7 9 11 13 15 19 19 14 11 13 13 15 18 14 13 12 7 7 7 6 5 9 9 10
31 30 30 29 28 27 27 26 24 23 20 15 13 11 7 4 4 5 6 5 6 8 12 15 12 9 9 4 3 8 9 8 9 9 11 15 13 5 1 4 6 7 8 4 2 6 7 5 4 3 4 6 7 10 11 9 11 16 12 10 6 1 5 7 9 16 20 19 19 17 14 13 12 13 15 21 17 16 14 9 8 9 8 8 9 10 11
31 31 30 29 28 27 26 25 23 22 17 12 9 6 4 3 3 5 7 6 6 9 13 16 12 8 7 4 3 6 8 8 8 7 9 10 9 8 5 6 10 10 7 4 2 4 5 4 5 4 4 6 6 6 6 5 11 15 10 7 6 2 4 7 12 18 20 18 14 11 10 9 9 10 11 20 20 17 15 10 8 8 8 9 9 10 11
31 30 29 29 28 26 25 23 21 20 16 11 7 4 3 4 4 6 8 7 8 11 11 11 7 6 6 3 2 6 6 7 9 8 8 7 6 8 7 7 9 8 6 5 3 4 5 6 8 7 5 4 2 1 3 5 10 12 8 7 6 3 4 9 12 12 13 13 11 11 12 10 9 9 5 15 20 18 15 11 8 6 7 7 8 9 9
30 30 28 28 26 25 24 21 19 17 15 11 7 5 5 6 6 8 8 5 6 8 7 7 5 3 3 2 3 6 6 8 10 8 8 8 8 8 9 9 6 4 5 5 4 5 7 9 12 13 12 8 4 3 2 5 9 9 7 7 6 3 4 7 8 7 8 9 13 16 16 12 6 6 8 6 15 14 11 10 7 4 5 4 6 6 7
30 29 28 27 25 23 22 20 17 15 12 9 8 7 7 8 9 10 7 3 3 5 5 5 4 2 3 6 6 7 9 10 9 5 7 10 12 14 14 9 4 3 4 5 8 11 13 16 19 20 19 17 13 11 11 11 9 6 6 7 6 4 4 5 5 6 7 9 15 16 12 7 3 6 12 7 5 7 3 3 4 4 0 4 5 6 6
29 28 27 26 25 23 20 18 16 13 11 9 9 10 10 9 10 10 6 3 3 4 3 3 3 3 7 11 11 8 11 11 5 2 3 9 15 20 17 8 3 2 5 11 17 20 21 22 22 20 20 19 17 16 16 15 14 11 7 5 6 6 5 5 4 3 7 13 16 12 3 3 2 5 15 14 6 16 16 10 11 14 10 4 4 4 4
29 27 27 25 24 22 20 17 15 12 11 9 9 11 11 9 9 9 6 3 3 3 2 3 4 7 12 14 13 9 10 11 7 3 5 10 17 18 14 8 4 5 11 19 23 21 19 17 16 15 16 16 15 15 14 14 15 16 13 8 8 8 6 5 3 3 6 10 9 3 4 2 5 4 14 17 10 14 19 18 18 19 17 14 10 3 7
28 27 26 25 23 21 19 16 14 12 10 8 9 11 11 9 8 8 6 5 3 3 4 6 9 12 14 13 11 11 11 13 13 12 10 11 14 13 10 7 7 13 19 22 22 16 10 8 7 8 10 10 9 10 11 13 15 16 15 13 10 9 6 3 3 4 4 5 4 3 6 4 7 8 14 18 15 12 13 17 18 18 16 14 12 8 7
27 26 25 23 22 20 18 16 14 12 10 10 10 11 11 11 9 8 7 6 3 3 4 5 7 8 9 9 10 10 11 12 12 12 12 12 12 12 12 11 13 18 20 18 16 9 3 3 4 3 4 5 3 4 7 10 13 15 15 14 12 10 7 2 3 3 2 4 5 3 3 6 7 9 13 13 10 11 8 6 10 15 17 14 12 11 7
26 25 24 23 22 21 18 16 15 14 12 11 11 11 11 11 10 8 8 7 4 4 7 7 7 6 7 11 11 8 7 7 6 8 11 12 12 13 14 16 18 18 17 13 8 4 1 2 3 2 3 3 3 2 3 4 8 13 15 13 11 11 7 2 3 3 4 5 4 4 4 3 4 11 17 16 12 13 9 1 7 13 18 17 13 11 10
25 24 24 24 23 20 18 16 15 14 12 10 11 11 11 10 10 9 12 12 6 3 5 7 7 7 8 12 12 8 4 2 3 5 6 7 11 14 17 20 18 15 14 11 4 1 2 2 1 2 2 3 4 4 3 4 4 6 10 13 12 10 7 3 3 4 4 4 3 3 1 1 8 16 19 23 25 18 7 3 7 10 17 20 16 12 12
25 25 26 26 23 20 18 16 14 12 10 8 10 12 11 10 9 10 13 14 10 8 10 11 13 11 7 7 7 6 5 4 3 2 2 5 11 15 19 22 18 12 12 9 2 2 3 1 2 2 1 3 6 5 3 4 4 3 1 7 8 6 5 4 4 4 5 4 3 2 1 2 11 16 18 27 32 19 2 7 6 8 15 20 17 14 15
27 27 27 26 23 20 18 15 13 11 9 8 10 11 11 10 9 9 13 15 11 9 10 10 10 10 7 5 7 8 8 7 4 1 3 6 7 11 18 18 12 10 11 7 2 2 3 1 2 2 1 2 4 4 4 4 3 4 3 1 3 2 3 4 4 4 4 5 4 2 1 2 10 18 24 31 25 7 6 7 1 7 13 18 19 18 20
28 28 27 25 23 20 17 14 12 11 9 8 10 11 11 10 8 8 13 15 12 10 10 8 8 12 13 12 13 12 10 9 6 2 2 4 6 13 16 9 5 7 9 5 2 2 2 1 1 1 2 2 3 3 3 4 3 4 5 2 2 2 2 2 3 3 3 4 4 2 1 3 14 23 27 24 10 3 6 4 3 7 11 16 21 23 23
28 28 27 25 22 19 16 13 11 10 8 7 9 12 11 9 8 8 11 13 13 16 20 17 13 14 12 10 12 12 11 10 7 3 2 4 9 14 9 3 4 8 6 4 4 2 1 2 2 1 1 2 3 3 3 3 4 5 6 4 3 1 1 1 1 2 2 3 2 2 0 7 19 21 16 14 9 5 5 6 6 10 15 18 22 26 26
28 27 26 23 20 18 16 14 12 10 8 7 8 10 10 7 6 6 8 10 11 13 13 9 8 11 12 13 15 15 14 14 13 9 8 10 10 7 2 2 5 4 1 2 3 1 1 2 3 2 2 2 2 3 4 4 4 6 6 3 3 4 3 1 1 2 2 0 2 3 2 4 14 14 7 7 9 11 12 10 9 13 19 21 23 26 29
27 25 23 20 20 19 17 15 13 11 9 7 7 8 7 5 3 3 5 7 10 13 13 12 13 15 15 13 12 11 13 15 14 13 14 14 11 7 7 7 4 3 2 1 1 1 1 1 2 2 3 2 2 4 5 3 2 6 7 3 2 4 4 2 2 3 2 2 1 3 5 4 6 13 11 10 14 16 15 13 14 18 21 24 25 26 29
25 22 20 20 20 20 18 16 14 12 11 8 5 5 4 1 1 2 4 5 10 16 17 16 15 12 8 6 6 7 9 10 10 10 12 13 11 9 9 7 4 3 3 2 1 2 1 2 2 2 1 2 3 4 4 2 1 4 6 3 4 6 6 4 3 4 4 3 2 6 10 6 11 16 14 13 15 15 14 14 16 19 21 23 26 26 27
22 19 19 20 20 19 17 16 14 12 10 8 4 2 2 3 2 2 3 4 8 11 12 12 11 8 10 11 12 12 11 11 12 11 10 12 10 7 6 6 4 3 4 5 4 4 3 3 3 2 1 3 3 2 3 3 2 4 6 5 4 5 8 7 3 3 4 3 2 9 12 11 17 18 15 15 16 14 15 16 15 17 19 19 21 23 24
19 18 19 20 19 17 16 15 12 10 9 9 10 9 6 4 2 1 2 3 5 5 5 7 8 8 12 14 12 10 10 10 11 12 11 15 15 10 6 7 6 5 6 7 5 5 5 3 2 2 2 3 4 3 3 4 3 4 5 3 3 6 11 9 3 3 6 4 4 14 14 9 16 18 14 15 16 14 16 18 17 18 18 16 17 19 19
17 17 18 18 15 14 14 13 12 10 9 10 11 11 8 6 5 4 3 2 4 5 3 5 9 12 12 10 7 10 11 8 8 9 10 12 14 13 9 9 8 6 6 7 7 7 5 3 2 2 2 4 6 3 3 3 4 4 4 5 8 10 10 7 4 6 7 4 6 16 14 7 11 16 14 14 15 14 15 16 17 19 19 17 16 16 15
16 16 17 16 13 12 13 13 12 11 10 10 10 10 8 7 7 6 5 3 3 3 2 5 12 14 10 6 9 15 15 8 2 4 6 7 9 11 9 7 6 6 8 8 7 6 4 2 3 3 4 6 7 3 3 4 4 4 4 5 8 8 5 5 7 6 4 4 9 12 7 5 9 14 16 17 17 15 13 13 16 18 18 16 15 14 14
15 15 16 14 12 10 11 12 12 11 11 10 9 8 6 6 8 9 8 5 3 2 4 11 16 13 7 5 9 13 13 9 4 2 3 4 4 6 7 7 7 8 9 7 5 3 1 2 4 6 6 6 5 4 4 4 4 3 3 4 8 8 6 7 7 7 10 14 16 12 6 7 15 20 20 20 18 15 13 13 13 13 13 13 14 16 16
13 14 14 13 12 10 10 11 12 12 12 11 9 6 4 5 8 10 10 8 5 4 7 10 11 7 5 7 10 12 11 9 7 5 4 5 6 7 8 9 9 9 8 5 3 1 1 2 3 5 5 6 5 4 4 3 3 3 5 9 12 15 17 17 15 14 18 21 21 17 14 18 24 27 25 22 18 17 15 11 8 8 8 9 13 16 17
12 12 13 12 11 10 10 10 11 12 13 13 11 6 3 5 9 12 12 10 6 5 5 5 4 4 6 7 10 12 10 8 7 9 9 8 7 7 7 6 7 7 5 3 2 2 2 2 4 4 4 7 7 3 3 4 4 5 9 15 20 24 28 30 27 24 25 28 27 25 26 29 30 30 29 26 20 16 13 9 6 6 8 10 13 16 17
10 11 11 10 10 10 10 10 10 11 13 14 13 8 4 5 10 13 13 10 7 5 4 3 5 6 6 6 9 11 10 7 6 9 10 9 7 6 6 6 6 5 4 3 4 4 3 3 4 3 6 9 5 1 3 5 3 6 15 26 30 32 35 38 38 35 35 35 32 29 31 35 33 29 30 28 19 14 12 11 9 8 9 10 11 13 15
9 10 10 9 8 9 10 10 10 10 10 11 12 10 8 8 10 12 11 8 7 6 4 3 3 4 4 5 9 11 9 7 7 9 11 11 8 6 6 7 6 5 5 4 4 4 4 6 6 6 8 9 5 1 2 2 2 8 22 33 38 40 42 43 42 40 37 33 27 22 25 32 30 25 25 24 17 12 10 9 8 7 6 7 9 11 12
9 10 10 8 8 8 9 9 10 10 10 10 10 10 10 11 11 12 10 7 6 6 5 2 1 2 3 4 8 11 8 6 7 9 9 11 10 7 6 7 6 6 7 5 3 4 6 7 7 7 8 9 5 1 2 3 5 13 21 27 32 38 42 41 38 35 33 28 24 24 27 29 25 20 19 18 16 13 11 8 9 10 6 5 7 10 10
8 11 11 9 8 8 8 9 10 10 10 10 9 9 10 11 11 11 10 7 5 5 6 3 1 2 3 4 4 9 9 6 5 6 6 7 9 7 5 5 6 6 6 5 4 4 6 6 6 6 7 8 7 3 2 7 18 25 25 25 30 35 36 35 35 35 32 26 24 30 36 33 28 25 25 24 23 21 18 14 14 13 10 8 8 9 11
8 11 11 10 10 9 9 9 10 9 10 12 11 10 11 11 9 8 8 7 4 3 3 3 1 1 3 2 2 7 9 6 4 4 3 4 6 6 4 4 4 4 4 5 4 4 5 6 6 5 5 6 5 3 3 12 25 31 32 33 38 39 34 30 33 35 29 22 21 25 27 27 28 32 33 29 26 25 24 21 19 17 15 12 10 10 13
8 10 10 9 10 9 8 8 8 9 11 14 14 13 12 10 8 6 5 5 4 2 1 2 1 1 1 1 3 5 8 5 3 4 3 2 3 4 3 3 3 1 2 3 2 1 3 5 4 3 3 4 4 4 10 18 25 29 32 34 37 39 36 33 35 35 27 18 18 19 16 19 26 31 30 25 23 22 21 21 19 17 15 13 12 11 13
8 9 9 9 10 9 7 7 9 11 14 16 15 12 10 7 5 4 4 2 3 3 2 2 1 2 2 2 3 5 6 4 3 3 2 1 1 2 1 1 1 1 1 2 1 1 2 3 3 2 2 3 5 10 17 22 24 27 30 33 35 39 41 39 38 38 34 24 17 14 12 14 20 25 25 21 20 19 18 17 17 17 15 13 11 11 10
8 8 8 9 9 7 6 9 13 15 16 16 12 8 5 3 3 3 3 2 2 3 2 2 3 3 2 2 3 5 5 4 3 2 1 1 1 1 1 1 1 1 1 2 1 1 2 2 2 1 2 5 10 17 21 22 23 26 29 31 34 38 41 41 40 38 36 31 23 12 11 13 16 20 20 18 16 17 17 16 14 14 14 12 11 10 10
9 9 10 10 9 7 8 12 16 18 17 13 8 4 2 2 2 2 1 1 2 3 3 3 3 4 3 3 2 4 4 3 3 2 1 1 1 1 1 1 1 1 1 1 1 1 1 1 2 2 2 5 11 18 21 22 25 28 30 31 33 36 38 42 44 40 35 34 32 19 4 9 12 13 14 15 14 13 14 14 13 12 12 11 11 11 12
12 13 12 11 10 11 14 17 20 19 14 8 4 3 2 2 1 2 1 1 1 2 3 3 4 5 5 5 3 2 2 3 3 2 1 1 0 0 1 1 1 2 2 1 2 1 2 1 2 2 3 6 11 17 21 23 25 28 31 32 33 35 37 40 44 44 40 40 40 34 21 7 2 4 5 7 9 9 9 10 11 12 11 10 11 11 12
16 16 14 12 13 16 18 19 18 14 7 3 2 2 2 2 2 2 1 1 2 3 4 4 4 4 4 5 5 3 4 4 3 2 2 1 1 1 1 1 0 1 1 1 2 2 3 2 2 2 4 10 15 16 18 20 23 27 30 32 34 36 37 39 42 44 44 43 42 41 36 27 18 13 10 5 2 2 3 5 7 9 9 10 10 10 10
18 18 15 14 14 15 15 13 9 6 3 2 1 2 1 0 2 2 1 1 2 3 3 5 5 4 4 6 6 4 4 5 3 1 0 1 2 1 1 1 1 2 0 1 1 3 2 2 2 2 8 15 17 15 15 18 20 23 27 31 33 35 37 37 39 41 44 44 43 42 42 39 34 28 23 16 11 7 5 2 3 4 5 6 6 4 4
17 16 14 12 10 8 6 5 3 2 1 1 1 2 2 1 2 2 1 2 4 4 3 6 7 6 5 4 5 5 3 4 3 1 1 2 2 1 1 1 2 2 1 0 1 2 3 2 2 5 12 18 16 13 13 15 17 20 23 26 29 32 34 35 36 38 40 42 43 43 43 42 41 38 35 30 23 19 17 13 8 5 2 2 3 8 13
14 12 9 7 5 3 2 2 2 1 1 2 1 1 3 3 2 2 2 4 6 7 10 14 12 7 4 3 2 4 3 3 2 2 2 1 0 1 1 1 2 1 1 2 2 2 2 2 4 9 15 18 16 14 12 13 15 17 20 22 25 28 31 33 36 37 38 39 39 41 43 44 44 43 42 39 35 33 31 28 24 20 16 13 15 18 21
13 10 7 4 2 1 1 1 0 1 2 2 1 0 0 1 2 2 4 8 12 15 20 23 17 9 5 2 1 2 3 2 2 0 2 1 2 2 1 1 2 2 2 2 2 2 1 2 7 12 16 16 16 15 14 12 12 14 17 20 22 24 26 29 33 35 36 36 36 37 38 40 42 44 44 42 40 39 37 36 34 33 31 29 28 26 24
12 8 4 2 2 2 0 1 1 1 1 1 3 4 2 0 3 7 10 14 19 22 21 20 14 7 3 2 3 3 3 2 2 2 4 2 2 2 2 2 2 3 2 2 3 3 1 3 8 13 14 14 14 15 15 14 13 12 13 16 19 21 22 24 26 29 31 34 35 35 35 34 36 39 41 42 43 43 42 40 39 40 39 37 35 33 30
9 7 3 2 1 1 1 1 1 2 3 5 9 12 10 7 9 14 15 17 21 22 18 13 10 7 5 5 4 4 6 5 3 3 5 3 2 1 2 3 2 2 2 2 3 2 2 5 10 14 14 13 13 15 16 16 14 12 11 11 14 17 19 20 20 21 24 28 31 33 35 35 35 35 37 39 40 41 42 42 42 42 41 39 36 34 34
7 6 3 1 1 1 2 3 3 6 9 11 12 14 12 11 13 17 18 19 21 19 13 10 9 6 5 5 4 3 4 5 4 3 4 3 2 1 2 2 1 0 1 0 1 2 3 7 11 13 15 15 14 14 15 16 16 14 12 10 11 12 15 17 17 16 17 19 22 26 30 33 34 35 36 37 38 38 38 39 39 40 40 39 37 36 35
6 5 2 1 2 1 3 6 6 6 9 11 12 13 12 11 12 15 18 20 19 14 10 10 9 5 4 4 3 2 3 4 2 1 2 3 2 1 1 1 1 1 1 2 2 2 4 8 10 12 14 15 15 14 14 14 14 14 13 12 11 11 11 11 13 15 15 15 16 18 20 24 28 30 32 33 33 34 35 35 35 35 36 36 36 35 33
4 4 4 3 3 1 4 6 6 4 6 10 13 14 14 12 11 12 15 16 16 13 10 9 8 5 3 4 3 2 2 2 2 2 3 2 1 1 2 2 1 2 2 1 2 4 6 8 9 11 13 14 14 14 13 12 11 13 14 13 12 12 11 9 8 11 14 16 16 16 16 17 19 22 25 25 26 27 29 31 32 32 32 32 32 31 30
3 4 4 2 2 1 2 3 2 1 2 7 11 13 13 12 11 12 13 14 14 12 8 6 5 3 3 3 2 1 2 3 3 3 2 2 1 2 2 1 2 2 2 3 4 6 7 8 9 11 14 15 15 14 13 11 8 10 13 14 13 12 11 10 9 8 10 12 12 14 16 17 17 18 19 20 20 22 23 24 25 27 28 28 27 26 26
3 4 3 3 5 4 2 3 4 5 4 5 9 10 10 9 9 10 11 11 12 10 7 6 4 2 2 2 2 2 2 3 2 2 2 2 2 2 2 3 4 5 6 5 5 7 8 9 10 12 14 15 14 15 16 14 10 7 10 14 15 13 12 12 11 11 11 11 10 11 13 15 16 16 17 17 19 20 21 21 20 21 24 25 25 24 23
Wind_Direction
335 335 335 336 337 337 337 337 341 346 345 348 354 358 0 351 329 342 359 7 22 38 56 10 6 12 357 359 6 3 358 358 0 3 1 2 27 25 22 18 11 17 8 346 327 325 356 69 341 312 318 323 319 332 345 349 349 345 333 333 332 327 337 307 294 287 268 267 278 276 237 210 200 196 179 183 192 182 178 187 173 182 206 207 207 243 267
335 335 335 336 337 337 337 336 340 345 345 347 351 352 352 340 323 333 354 20 45 50 36 2 1 349 353 356 5 6 359 357 355 344 347 23 47 28 25 16 357 341 337 327 318 336 59 127 305 316 309 309 318 327 339 343 338 328 321 326 332 334 350 350 324 308 285 271 271 293 265 215 207 204 190 193 196 182 155 144 157 194 209 191 187 231 253
335 335 335 336 336 335 335 335 337 342 343 343 348 350 346 342 328 329 345 19 53 52 34 22 353 341 353 350 355 3 353 348 350 341 347 30 43 32 7 358 342 327 330 334 333 10 108 169 278 296 296 304 313 322 331 332 319 296 302 317 324 311 287 301 310 281 252 238 223 261 301 276 246 211 196 194 187 179 163 130 157 204 215 192 187 223 259
334 334 335 335 335 334 333 334 334 337 338 339 347 354 348 345 344 332 339 2 34 31 20 21 11 349 352 344 350 355 337 337 351 351 359 7 4 16 27 355 342 329 346 352 339 341 344 318 325 278 301 308 303 319 324 318 309 308 330 344 337 286 271 264 250 256 268 272 274 286 305 305 283 239 204 188 181 182 173 147 171 186 181 194 209 221 249
333 333 334 334 334 333 331 332 332 333 336 338 345 358 359 347 1 357 341 345 1 5 5 6 359 342 344 333 324 344 344 348 354 355 354 346 343 3 70 358 343 336 344 347 331 331 327 327 332 300 306 305 301 319 316 302 319 353 4 353 340 279 299 282 259 272 281 281 280 282 285 275 276 268 219 190 180 182 179 182 193 163 145 208 232 223 228
332 332 333 333 333 332 331 331 331 333 338 342 346 359 14 356 335 359 359 342 347 353 341 332 328 335 347 336 313 345 360 3 354 348 341 339 343 355 5 350 349 339 339 339 308 326 329 321 317 303 306 311 317 324 304 294 353 10 360 346 351 313 286 286 297 304 296 286 278 272 266 252 262 272 224 193 184 187 186 195 193 159 156 210 225 215 215
331 331 332 332 332 332 331 331 333 336 342 349 350 354 6 358 323 335 353 344 315 304 301 307 317 333 336 325 328 353 0 356 349 342 333 331 341 348 342 350 346 333 332 345 317 327 336 314 307 303 299 313 328 333 302 304 358 0 346 344 1 332 276 299 319 311 296 288 284 285 290 271 275 290 228 191 189 195 188 184 189 177 184 201 194 197 216
330 331 331 332 332 331 331 333 335 337 341 348 355 342 316 334 328 318 333 328 299 294 301 312 321 320 315 308 329 344 348 345 340 333 320 309 325 346 343 335 333 328 334 338 307 320 321 292 295 301 297 308 331 352 313 306 333 342 339 339 347 339 301 316 324 311 291 293 310 331 333 304 284 312 280 195 192 198 193 183 185 195 207 196 165 180 224
330 331 332 332 332 331 332 336 337 338 340 339 340 324 291 298 312 312 316 314 302 302 309 313 306 296 304 302 328 337 332 333 336 322 302 308 327 334 324 316 317 326 335 321 298 320 318 297 302 305 294 282 244 192 243 281 309 329 329 320 325 323 302 310 327 318 288 306 335 335 324 308 290 344 345 222 193 193 198 181 159 183 210 166 131 171 230
331 332 333 332 332 331 332 335 336 337 338 327 312 302 292 294 307 313 309 296 298 303 303 308 303 287 314 324 331 330 317 329 353 342 308 324 331 321 315 316 325 321 312 305 310 321 317 305 303 300 289 275 251 228 230 242 258 286 302 306 300 287 295 311 331 321 284 306 331 322 315 332 360 20 0 321 193 133 119 146 80 20 277 154 160 199 220
332 333 334 333 333 332 332 334 335 332 327 313 293 284 283 284 295 306 304 264 264 296 310 311 297 297 316 320 322 321 315 327 6 82 301 314 313 312 317 329 346 293 299 317 321 318 311 304 300 295 288 279 261 239 227 227 237 247 257 282 285 278 290 300 310 309 290 309 323 313 314 55 29 17 14 1 53 89 78 58 27 12 8 349 259 207 165
333 334 334 335 334 334 334 334 333 327 320 307 286 279 279 276 279 287 285 270 281 305 304 267 274 301 310 309 312 323 326 329 334 311 288 291 295 306 322 336 332 309 318 325 323 316 309 304 299 293 287 279 269 254 235 227 235 238 235 243 270 279 281 286 282 257 280 310 328 289 186 212 282 351 24 12 24 73 71 54 30 13 5 352 335 47 105
335 336 336 337 336 335 334 332 329 328 327 313 288 278 278 272 268 269 266 267 269 262 273 277 279 288 296 303 317 327 324 322 322 315 303 294 295 309 324 326 320 322 325 326 323 318 314 305 299 295 288 280 268 254 245 240 239 237 233 231 245 264 269 274 278 263 278 327 333 212 204 274 322 3 16 7 360 8 35 49 33 8 3 359 353 23 77
337 339 338 338 336 333 332 333 332 331 329 315 292 283 281 269 256 255 258 262 260 242 260 289 292 287 295 312 323 322 317 318 319 318 317 312 308 315 323 327 329 329 329 327 322 319 325 311 311 313 300 299 290 255 252 249 240 236 233 227 230 245 255 279 281 267 340 342 300 272 298 323 346 1 351 347 344 325 332 49 39 5 1 2 4 16 32
340 341 340 337 334 333 333 334 330 324 321 312 293 283 281 269 255 249 249 250 265 264 244 247 263 278 306 317 315 313 316 319 320 319 321 321 320 326 336 338 335 333 334 335 326 313 338 343 335 333 320 330 339 310 293 277 246 233 227 223 228 235 237 280 302 292 349 346 311 329 351 328 339 338 324 319 317 303 292 36 45 7 357 357 3 20 22
342 341 339 336 333 333 331 327 322 318 319 313 294 284 283 272 253 245 247 245 252 266 226 224 250 277 299 302 300 301 302 302 319 317 316 324 324 328 339 342 339 340 342 340 329 317 348 355 323 301 305 335 332 314 317 327 299 239 211 209 223 239 242 260 275 277 310 325 312 317 317 269 328 327 321 321 321 307 275 90 40 357 349 354 0 16 27
344 340 337 335 333 330 327 324 323 323 322 314 294 287 288 279 253 242 245 242 237 248 256 262 275 284 292 296 296 303 306 303 311 303 290 313 316 323 337 342 345 354 353 345 343 13 359 339 308 306 287 324 318 309 319 330 335 350 198 196 214 248 263 259 251 261 285 290 284 290 221 304 319 320 317 317 315 307 246 92 45 336 340 355 3 18 29
343 340 337 336 333 329 328 330 332 328 320 309 292 285 287 283 262 240 240 241 241 256 271 277 274 264 261 286 294 297 305 307 304 282 289 293 303 327 337 340 349 359 354 350 24 22 352 308 301 306 282 316 317 316 336 339 341 346 331 217 181 230 261 262 254 261 285 284 279 282 219 306 319 318 316 314 310 318 80 78 354 306 341 7 17 26 34
342 341 340 338 334 334 335 335 331 323 312 300 289 286 288 286 271 244 237 239 240 251 265 275 272 269 278 291 289 287 294 294 279 275 302 287 315 333 331 333 356 352 347 353 17 4 341 312 282 277 282 323 333 326 330 330 331 334 329 343 105 172 238 261 244 249 268 261 270 287 225 338 331 322 324 331 339 83 68 34 323 329 359 23 30 32 37
344 343 342 340 340 343 341 333 325 319 311 297 287 286 288 287 280 261 244 239 244 261 275 281 279 277 284 285 277 279 290 290 273 237 224 276 317 335 338 351 349 340 349 2 353 360 11 319 302 301 317 316 308 310 324 319 320 339 346 355 26 35 308 310 279 285 268 237 294 9 69 339 339 334 339 5 34 72 37 15 7 14 25 34 36 36 38
346 345 345 346 350 352 347 337 332 326 316 299 287 286 289 293 293 275 255 247 248 263 281 288 278 280 285 280 274 270 266 267 267 263 269 284 305 331 339 293 319 325 40 27 335 338 40 322 304 324 335 305 286 316 336 329 318 339 344 340 19 34 27 357 307 331 338 260 15 32 173 314 351 1 13 26 42 56 47 29 14 22 33 38 37 38 40
348 348 350 355 360 359 353 347 344 340 332 318 294 285 287 294 302 288 271 257 250 257 274 289 292 294 293 286 282 272 262 264 266 261 266 277 286 288 273 269 270 241 188 139 212 263 322 294 290 315 312 293 296 324 335 332 328 344 345 346 19 10 355 313 261 276 289 233 262 316 264 247 34 43 41 31 39 46 42 35 30 27 31 37 39 38 39
350 353 357 3 4 1 356 355 358 359 356 346 311 281 274 244 217 263 276 266 260 268 282 295 299 304 315 321 324 312 292 283 275 259 250 254 269 279 269 258 242 227 233 218 216 259 248 215 262 301 297 299 314 327 336 342 329 336 339 329 307 318 332 338 287 264 287 272 276 329 327 351 55 61 57 46 41 37 33 35 37 33 30 33 37 39 40
354 359 4 6 5 1 359 2 9 13 14 18 32 59 102 136 160 235 260 256 263 276 291 298 296 314 342 340 330 323 307 289 286 286 256 230 236 258 263 261 254 243 274 301 302 287 280 263 266 266 265 302 323 341 342 341 339 333 334 320 296 327 357 354 304 284 320 301 342 353 352 26 55 57 55 47 38 34 33 30 31 36 37 30 29 37 44
359 5 8 7 5 3 6 11 18 28 41 50 58 65 72 80 68 340 280 251 261 279 298 297 298 330 344 328 317 324 316 287 280 292 273 239 232 238 271 298 289 276 305 330 334 312 302 289 277 286 304 346 15 13 316 310 324 332 332 319 297 333 349 344 310 322 318 274 337 355 352 33 57 47 42 45 42 37 33 28 23 29 35 31 26 32 41
3 9 9 9 9 11 17 21 28 41 52 54 56 59 58 55 47 15 349 312 286 282 267 275 304 334 345 337 353 10 351 303 265 280 288 264 245 244 267 296 295 298 330 352 358 344 327 309 305 294 297 359 11 352 266 285 322 319 301 292 295 305 320 335 343 333 306 271 359 2 352 2 30 23 19 27 28 20 16 16 13 12 16 22 28 32 37
7 12 10 10 15 21 27 30 35 42 46 44 48 52 48 45 42 23 13 8 325 304 236 275 307 331 356 18 25 17 5 350 298 283 305 296 260 248 258 282 298 328 351 359 6 6 360 340 328 302 295 331 340 311 259 292 306 284 266 298 317 314 316 351 351 330 298 304 342 353 346 309 324 337 341 346 350 351 350 354 360 2 4 12 26 36 37
9 13 12 13 18 24 30 35 38 40 38 32 32 37 38 44 46 33 18 4 337 298 268 286 303 322 352 14 9 4 359 1 10 328 299 313 287 257 265 291 309 330 344 353 8 21 20 335 317 303 311 335 333 300 296 305 288 256 257 311 331 332 326 331 328 296 280 291 300 306 307 289 293 303 313 319 325 334 337 338 349 360 3 9 19 27 25
12 15 14 17 21 22 27 35 37 38 37 32 27 26 21 29 37 30 15 2 346 309 294 301 310 323 339 347 351 352 351 356 359 342 317 312 302 285 286 293 297 306 322 343 17 20 324 315 302 296 323 344 329 303 314 325 298 276 282 298 314 319 315 310 303 289 283 285 286 291 295 290 287 292 299 301 304 315 325 332 351 11 9 357 358 4 8
14 17 17 19 23 24 29 36 38 37 36 32 29 25 6 7 18 14 2 354 347 330 316 310 308 318 336 346 348 352 6 20 7 349 344 331 308 301 305 302 296 303 318 340 356 337 315 301 290 283 317 333 325 304 315 327 305 279 296 314 321 320 314 307 298 287 281 280 283 285 284 282 283 286 288 288 288 296 310 326 346 356 351 339 335 342 352
14 17 17 20 24 26 29 33 34 35 34 32 32 31 9 354 4 3 357 353 350 341 321 288 286 307 332 358 4 7 20 25 358 352 3 3 343 328 334 333 326 333 343 341 335 334 327 316 310 305 326 337 341 318 305 316 296 294 316 324 323 317 312 309 303 295 286 280 279 281 276 272 273 275 277 280 282 282 290 305 312 318 338 345 334 331 339
15 14 14 14 15 16 19 21 21 22 23 26 29 28 19 9 3 359 358 0 358 348 332 298 299 314 322 352 8 14 23 25 15 17 24 23 18 12 7 5 4 3 2 1 356 351 342 336 330 323 330 340 347 300 275 256 222 298 316 321 321 319 318 315 310 306 297 282 271 269 269 266 263 262 267 276 281 275 276 297 311 308 327 352 343 334 335
12 8 7 5 359 357 0 2 3 4 4 6 9 10 11 11 5 357 356 2 8 8 1 333 288 316 314 331 3 15 22 28 25 26 31 32 32 30 22 22 25 22 21 32 31 357 345 342 330 321 332 347 352 317 224 232 285 309 313 314 319 323 324 322 320 317 308 289 261 244 248 255 255 252 254 259 259 252 252 283 311 310 308 326 334 335 334
4 1 1 355 343 336 336 341 345 346 345 345 347 352 356 356 352 349 349 352 4 17 15 7 333 323 319 303 343 13 19 20 15 15 24 29 32 33 23 12 18 28 31 36 36 12 359 352 342 333 337 344 345 337 272 307 326 334 337 337 338 339 336 333 334 332 321 302 272 252 249 251 253 251 248 248 251 251 251 260 281 296 302 307 317 324 324
354 355 354 348 340 331 323 327 334 337 339 342 344 343 340 336 333 335 341 352 9 30 16 7 360 335 341 325 330 3 9 9 4 3 360 9 25 36 29 13 17 27 16 12 25 34 12 356 353 343 329 332 343 346 317 327 336 345 351 352 350 349 344 340 342 342 330 309 289 274 259 248 247 250 250 251 255 258 258 257 262 276 287 292 300 311 313
350 353 350 344 342 337 328 330 339 343 345 346 343 335 327 324 323 317 318 349 25 41 323 339 334 247 305 277 284 331 351 354 350 352 337 325 9 20 23 30 32 20 2 9 29 51 10 1 3 356 331 338 351 343 340 343 347 350 354 355 354 354 352 349 353 357 352 327 301 291 271 246 244 249 250 247 248 254 258 257 256 263 273 279 287 297 302
343 349 349 345 343 343 343 345 346 343 341 340 335 326 320 317 317 305 291 319 19 8 324 321 287 250 239 246 284 325 347 344 332 337 318 275 338 2 27 61 32 282 350 29 39 152 78 41 36 21 318 325 346 352 356 360 359 356 358 0 1 2 2 1 4 9 9 358 330 301 276 254 249 249 249 246 242 243 248 249 248 251 260 272 282 286 293
339 341 345 346 347 349 347 340 335 332 332 332 328 324 319 310 309 308 295 287 337 330 293 248 264 269 239 229 313 335 336 322 317 327 294 291 343 352 355 27 10 301 6 21 6 154 123 84 70 62 316 341 4 8 7 8 8 7 8 9 8 8 9 11 13 14 12 5 353 322 270 257 260 257 252 248 244 242 243 247 248 246 250 262 271 276 290
356 351 345 342 339 336 329 325 324 325 326 325 322 314 307 312 317 324 315 274 290 289 253 241 285 296 250 229 310 340 328 310 318 326 298 319 360 355 345 4 360 357 17 13 360 20 41 28 43 53 6 359 11 13 11 12 14 16 16 15 15 16 17 18 19 20 18 17 18 19 341 254 268 275 266 256 254 251 248 249 246 241 245 257 262 270 289
354 349 342 335 326 320 315 313 315 319 320 316 309 293 283 279 239 206 203 296 284 252 237 256 300 313 289 265 269 301 300 292 295 299 313 331 313 34 51 39 360 22 33 357 331 40 77 29 3 17 10 358 3 9 13 16 19 22 23 22 21 22 24 25 26 26 28 30 34 39 46 54 19 344 313 268 256 254 254 252 245 242 248 256 257 269 288
341 338 333 322 313 310 308 306 310 314 308 280 277 288 266 241 240 221 162 38 316 263 255 272 293 308 284 257 243 263 303 299 278 268 298 302 234 157 100 136 150 64 47 327 341 62 82 35 5 360 344 347 357 9 17 19 21 25 29 28 27 27 29 31 32 31 32 34 36 39 44 51 56 55 53 60 104 186 213 224 229 235 242 249 258 274 284
328 325 322 313 304 301 301 298 296 298 281 247 284 298 256 214 327 308 168 169 290 279 261 268 281 296 288 263 247 256 291 290 267 237 333 251 216 186 152 165 91 68 51 270 52 68 42 358 11 357 341 346 357 11 21 21 22 27 31 32 32 33 33 34 35 35 36 36 36 38 43 48 51 54 59 66 73 75 78 107 214 230 241 252 260 259 230
323 323 325 320 305 294 295 285 258 251 300 41 29 337 329 340 333 315 292 303 308 305 294 287 290 304 319 288 236 215 243 267 254 219 218 229 222 160 83 53 44 51 41 340 68 55 20 8 14 348 346 351 360 13 23 26 26 28 32 35 37 38 37 38 39 40 41 40 39 40 43 46 47 52 58 64 68 70 69 70 83 107 133 199 174 141 135
330 331 333 325 300 272 283 272 224 196 2 2 52 31 3 350 329 308 327 333 319 315 323 321 308 290 295 305 214 191 214 254 250 243 253 252 359 35 41 23 2 360 28 45 45 40 30 18 349 343 351 357 360 4 17 28 30 31 34 38 40 40 39 40 42 43 44 44 42 41 43 45 47 51 55 58 63 68 70 72 81 93 104 112 118 120 118
337 334 334 334 307 231 238 302 250 79 22 337 308 113 26 317 304 300 322 336 336 335 339 339 329 300 276 303 154 186 211 198 171 251 322 3 45 26 21 39 10 5 29 40 12 360 16 350 336 342 352 359 359 360 8 22 31 35 38 40 41 42 42 41 43 45 47 48 48 46 45 45 47 50 53 55 60 65 68 70 75 83 90 93 95 98 102
340 332 334 347 302 251 243 9 6 8 345 336 19 27 40 84 347 340 337 343 346 344 343 345 346 336 323 17 61 38 18 64 115 343 338 15 83 49 51 74 42 19 35 31 356 345 332 324 334 343 351 357 2 8 15 20 26 32 37 40 43 46 47 45 45 46 48 50 52 53 52 50 50 51 53 54 57 61 63 65 70 76 81 82 81 82 86
336 328 337 4 313 297 357 37 73 66 60 52 34 26 28 28 7 355 350 349 350 348 347 353 6 16 26 42 54 33 22 37 48 349 353 37 99 53 41 65 57 29 38 18 348 328 310 327 341 350 355 358 4 14 21 25 26 27 30 36 43 49 51 52 51 49 49 51 53 55 55 55 55 56 56 56 56 58 59 61 64 70 75 78 78 79 81
323 316 325 333 233 248 4 33 81 82 64 50 34 25 23 17 3 357 356 357 359 1 5 10 10 8 17 36 57 57 22 27 30 354 356 32 69 36 31 45 32 57 105 126 275 277 305 327 342 354 2 6 8 12 17 23 28 30 32 34 40 48 53 55 57 57 55 53 54 56 58 57 57 58 59 58 58 57 58 60 62 66 69 72 73 74 77
310 295 280 275 257 225 56 50 56 63 55 43 31 21 16 10 2 359 360 3 10 21 36 34 22 2 336 1 41 61 18 18 31 10 10 29 42 30 34 25 337 317 228 214 235 290 337 349 359 6 10 13 14 14 14 18 25 30 31 31 32 38 46 53 61 67 68 63 59 59 60 60 61 61 62 61 60 58 57 57 60 63 66 68 69 69 70
316 287 273 291 303 335 59 47 31 21 37 42 35 21 7 1 4 6 3 7 19 36 44 36 29 23 356 357 22 39 21 33 76 66 39 38 23 16 49 55 337 317 320 342 21 27 21 15 15 14 12 10 12 14 16 18 22 26 28 28 29 34 39 43 54 69 76 74 70 66 64 64 65 67 67 67 67 64 60 57 58 61 65 68 69 69 68
329 294 288 326 18 72 84 63 43 25 43 43 36 23 10 5 10 12 8 11 25 35 29 7 4 22 31 27 19 356 24 55 71 65 50 30 360 23 56 39 329 346 64 78 52 37 32 27 21 16 13 11 11 14 18 20 22 25 29 30 30 31 33 34 40 57 68 72 75 77 77 75 73 74 75 76 75 73 71 68 65 66 68 70 72 73 72
297 295 317 34 55 67 98 112 103 100 88 51 28 18 10 7 8 5 2 12 25 26 7 349 1 47 63 34 358 2 32 46 51 57 56 41 31 69 93 48 22 50 93 96 59 40 42 41 33 22 15 10 11 15 21 26 28 31 34 35 35 34 31 33 41 53 58 60 69 84 90 88 86 84 83 82 80 78 79 78 75 73 74 76 78 79 78